Regional Weather Roundup
Issued by NWS

Home | Current Version | Previous Version | Text Only | Print | Product List | Glossary On
Versions: 1 2 3 4 5 6 7 8 9 10 11 12 13 14 15 16 17 18 19 20 21 22 23 24 25 26 27 28 29 30 31 32 33 34 35 36 37 38 39 40 41 42 43 44 45 46 47 48
000
ASUS42 KKEY 201710
RWRKEY

FLORIDA REGIONAL WEATHER ROUNDUP FOR THE FLORIDA KEYS
NATIONAL WEATHER SERVICE KEY WEST FLORIDA
1200 PM EST SAT DEC 20 2014

...SOUTH FLORIDA AND THE KEYS...

CITY           SKY/WX    TMP DP  RH WIND       PRES   REMARKS
FORT MYERS     MOSUNNY   77  60  55 SE9       30.07F
SW REGIONAL AP SUNNY     76  60  57 SE10      30.08F
NAPLES           N/A    N/A N/A N/A SE10      30.07F
MIAMI          MOSUNNY   77  60  55 SE12      30.09F
WEST KENDALL   MOSUNNY   78  60  53 SE8       30.09F
HOMESTEAD      PTSUNNY   78  62  57 E12       30.08F
MARATHON       MOSUNNY   80  68  66 VRB6      30.07F
BOCA CHICA NAS PTSUNNY   78  67  68 SE14      30.06F
KEY WEST INTL  PTSUNNY   77  68  73 SE13      30.06F

...INTERNATIONAL WEATHER...

CITY           SKY/WX    TMP DP  RH WIND       PRES   REMARKS
NASSAU BAHAMAS PTSUNNY   79  61  53 SE8       30.10F
CANCUN MEXICO  PTSUNNY   81  75  83 SE12      30.00S
COZUMEL MEXICO PTSUNNY   79  75  89 SE7       29.99F

ADJACENT COASTAL WATERS...

STATION/POSITION TIME  SKY/WX   TEMP    WIND        PRES    WAVE
                                AIR SEA DIR/SP/G            HT/PER
                 (UTC)          (F)     (DEG/KT/KT) (MB)    (FT/S)
PULASKI SHOAL LI 1600            72     110/ 10/ 12 1018.0F
SAND KEY         1638            76     150/ 12/ 14 1017.8F
SOMBRERO KEY     1700            77     140/ 11/ 12 1018.9F
LONG KEY         1600            75 70  160/  7/  7 1019.7R
MOLASSES REEF    1700            75 76  150/ 10/ 11 1018.5F
FOWEY ROCKS      1700            75 75  150/ 11/ 12 1018.9F
Buoy 42080       NOT AVBL

$$


USA.gov is the U.S. government's official web portal to all federal, state and local government web resources and services.